TimePST,TemperatureF,Dew PointF,Humidity,Sea Level PressureIn,VisibilityMPH,Wind Direction,Wind SpeedMPH,Gust SpeedMPH,PrecipitationIn,Events,Conditions,WindDirDegrees,DateUTC
12:54 AM,37.9,32.0,79,30.17,10.0,Calm,Calm,-,N/A,,Clear,0,2013-12-24 08:54:00
1:54 AM,41.0,33.1,73,30.17,10.0,NNE,3.5,-,N/A,,Clear,30,2013-12-24 09:54:00
2:54 AM,39.9,32.0,73,30.17,10.0,Calm,Calm,-,N/A,,Clear,0,2013-12-24 10:54:00
3:54 AM,35.1,30.0,82,30.17,10.0,NNW,3.5,-,N/A,,Clear,340,2013-12-24 11:54:00
4:54 AM,39.0,32.0,76,30.16,10.0,Calm,Calm,-,N/A,,Clear,0,2013-12-24 12:54:00
5:54 AM,37.9,30.9,76,30.17,10.0,Calm,Calm,-,N/A,,Clear,0,2013-12-24 13:54:00
6:54 AM,37.0,30.9,79,30.17,10.0,Calm,Calm,-,N/A,,Clear,0,2013-12-24 14:54:00
7:54 AM,45.0,35.1,68,30.19,10.0,Calm,Calm,-,N/A,,Clear,0,2013-12-24 15:54:00
8:54 AM,54.0,37.9,55,30.19,10.0,Calm,Calm,-,N/A,,Clear,0,2013-12-24 16:54:00
9:54 AM,64.9,37.9,37,30.19,10.0,Calm,Calm,-,N/A,,Clear,0,2013-12-24 17:54:00
10:54 AM,73.0,35.1,25,30.16,10.0,Calm,Calm,-,N/A,,Clear,0,2013-12-24 18:54:00
11:54 AM,73.9,37.0,26,30.14,9.0,SSW,8.1,-,N/A,,Clear,210,2013-12-24 19:54:00
12:54 PM,73.9,35.1,24,30.11,10.0,SSW,6.9,-,N/A,,Clear,210,2013-12-24 20:54:00
1:54 PM,75.9,34.0,22,30.08,10.0,SSW,4.6,-,N/A,,Clear,200,2013-12-24 21:54:00
2:54 PM,75.9,34.0,22,30.07,10.0,SSW,6.9,-,N/A,,Clear,200,2013-12-24 22:54:00
3:54 PM,72.0,36.0,27,30.06,10.0,SSW,5.8,-,N/A,,Clear,200,2013-12-24 23:54:00
4:54 PM,64.9,34.0,32,30.08,10.0,SSW,4.6,-,N/A,,Clear,200,2013-12-25 00:54:00
5:54 PM,57.9,41.0,53,30.10,10.0,Calm,Calm,-,N/A,,Clear,0,2013-12-25 01:54:00
6:54 PM,54.0,39.0,57,30.12,10.0,Calm,Calm,-,N/A,,Clear,0,2013-12-25 02:54:00
7:54 PM,46.9,37.9,71,30.13,10.0,Calm,Calm,-,N/A,,Clear,0,2013-12-25 03:54:00
8:54 PM,46.0,37.0,71,30.13,10.0,Calm,Calm,-,N/A,,Clear,0,2013-12-25 04:54:00
9:54 PM,44.1,36.0,73,30.14,10.0,North,3.5,-,N/A,,Clear,360,2013-12-25 05:54:00
10:54 PM,43.0,35.1,74,30.15,10.0,Calm,Calm,-,N/A,,Clear,0,2013-12-25 06:54:00
11:54 PM,39.9,34.0,79,30.14,10.0,Calm,Calm,-,N/A,,Clear,0,2013-12-25 07:54:00